RH
38 27 18 16 16 16 13 12 12 11 12 12 13 9 6 5 5 5 4 6 6 4 3 3 3 4 5 7 8 11 20 25 31 28 36 27 41 79 82 86 72 65 100 100 100 92 85
43 34 21 20 18 18 14 13 12 12 13 14 15 11 8 6 6 5 6 7 8 6 4 3 3 5 6 5 7 9 12 18 26 26 32 32 30 65 90 86 79 62 75 100 100 100 88
46 40 24 21 20 19 16 15 12 11 14 15 17 14 9 6 6 6 6 7 8 9 6 4 3 3 6 6 6 7 9 13 20 24 26 33 26 42 95 87 84 67 61 91 100 100 98
50 43 28 24 24 22 19 20 14 12 12 15 16 18 11 9 6 6 8 9 10 7 6 4 3 4 3 6 6 6 8 11 16 23 24 32 26 29 90 90 82 70 54 61 88 100 100
53 47 36 29 27 27 22 22 17 14 12 13 15 20 16 13 9 7 7 11 9 6 4 4 2 4 4 3 6 6 7 10 14 20 21 30 28 26 74 94 88 71 55 48 61 100 100
59 50 45 37 34 33 26 25 18 17 13 13 15 16 22 16 12 9 8 10 7 4 3 3 2 2 5 4 6 6 7 9 12 18 22 27 29 25 55 99 93 77 63 49 46 93 100
58 56 48 49 41 33 30 26 26 18 15 13 12 14 20 19 15 10 7 8 6 4 4 3 3 4 6 6 6 6 7 9 11 15 21 26 28 23 45 98 98 90 61 54 42 57 100
59 60 56 55 52 39 34 30 30 25 19 14 13 12 15 21 18 11 8 7 7 5 4 4 4 5 7 7 6 7 7 9 11 15 21 27 30 25 41 88 100 99 77 56 40 49 98
56 64 64 60 59 50 42 36 33 29 24 17 15 14 14 16 23 18 11 8 7 6 6 5 5 6 9 9 8 8 7 9 12 16 21 28 29 26 41 82 100 100 90 57 40 40 67
67 71 79 67 66 66 56 42 36 32 29 23 17 16 15 15 19 23 16 11 8 8 8 8 5 6 8 10 10 9 9 10 13 16 20 27 28 26 44 71 96 94 83 55 41 38 50
67 80 75 79 80 79 71 59 45 41 32 28 21 18 16 14 16 22 22 17 14 12 10 10 9 8 8 10 9 9 11 12 14 17 20 26 27 24 35 58 75 84 74 57 45 36 40
64 86 88 99 94 89 82 75 57 50 42 34 29 23 18 16 15 21 26 25 20 16 12 11 12 10 10 10 9 9 11 14 15 18 21 25 26 25 34 44 57 66 65 62 49 38 36
66 77 92 100 100 100 87 88 66 62 53 43 36 32 22 19 16 16 24 31 27 22 16 12 12 14 11 11 10 11 12 15 18 20 21 24 26 24 30 46 51 58 61 58 51 39 36
52 58 79 83 100 100 100 89 80 70 60 56 46 38 31 21 20 17 16 27 31 25 21 17 12 13 14 13 13 12 14 15 18 20 21 23 26 24 24 36 52 54 54 53 52 46 40
66 55 61 78 100 100 100 100 98 80 72 61 57 49 39 28 23 20 18 18 21 27 27 22 19 15 14 15 14 15 15 17 19 20 21 22 24 25 24 31 39 48 49 50 50 50 47
69 48 51 69 99 100 98 100 100 96 86 72 67 63 46 39 27 21 20 17 18 21 35 31 23 22 17 16 18 17 17 18 20 22 22 22 24 25 24 25 39 47 48 46 47 49 53
85 68 49 42 63 88 95 87 100 100 99 86 79 76 62 44 36 30 24 22 18 19 21 39 37 27 27 22 23 23 22 21 22 21 21 22 22 25 26 28 33 45 51 52 49 47 50
76 73 61 45 50 56 90 97 85 100 100 100 90 88 84 62 45 39 34 26 24 19 17 20 32 40 32 30 30 31 31 30 28 25 23 23 22 24 24 27 30 33 44 56 57 58 55
73 59 60 62 47 63 67 80 100 95 100 100 100 95 92 84 74 51 41 34 31 27 22 19 18 21 41 35 32 33 35 37 38 35 32 29 28 27 26 27 29 31 32 38 47 55 61
97 91 84 63 69 61 57 84 83 77 96 100 100 100 100 95 98 80 63 49 37 37 32 25 20 18 17 22 38 33 35 37 37 36 35 32 30 30 31 33 32 32 34 38 44 51 54
100 100 100 90 86 77 52 56 51 57 69 94 98 100 100 99 97 100 95 78 61 41 44 39 30 22 20 18 17 21 32 31 33 37 38 39 40 39 37 33 32 33 35 38 40 39 39
53 63 89 100 88 74 80 53 46 56 56 68 82 96 100 100 99 98 100 100 92 69 56 53 51 37 26 21 19 17 18 19 19 26 40 39 36 36 38 40 40 39 36 35 36 38 39
57 86 95 66 99 100 100 90 61 56 53 42 86 100 100 100 100 100 100 100 100 98 88 77 69 72 50 32 28 24 21 21 21 20 21 22 25 31 38 47 53 58 45 60 58 58 56
64 62 63 69 54 100 100 100 73 62 54 43 48 89 100 100 100 100 100 100 100 100 100 100 100 99 96 81 45 33 40 41 34 36 35 27 26 25 23 21 28 29 26 24 23 26 24
86 85 100 70 52 100 88 100 99 64 51 50 47 44 93 100 100 100 100 100 100 100 100 100 100 100 100 99 98 90 90 71 65 69 64 58 41 31 30 26 28 40 58 44 43 43 39
100 97 92 91 87 93 100 100 97 70 78 58 41 41 48 85 100 100 100 100 100 100 100 100 100 100 100 98 78 79 84 95 95 100 97 90 90 86 73 52 46 50 56 45 40 38 39
98 99 87 76 100 100 99 100 100 78 81 73 68 54 46 40 42 81 100 100 100 100 100 100 100 100 100 99 92 91 80 73 76 80 84 77 82 83 75 70 76 80 84 82 81 78 81
100 98 93 86 98 71 95 100 80 62 61 92 86 79 42 50 48 53 66 73 91 88 86 100 100 100 100 100 100 100 93 96 92 90 93 95 89 87 85 75 70 72 66 61 56 57 70
100 100 100 98 100 98 93 100 98 76 76 99 100 100 100 84 53 51 48 49 62 97 84 71 98 100 100 100 100 100 100 100 100 100 100 100 100 76 63 85 90 89 83 88 90 76 60
Wind_Speed
43 48 45 48 53 57 64 67 68 71 71 70 70 75 69 57 46 37 27 23 24 26 33 41 52 64 75 86 92 106 108 106 102 96 91 86 86 83 75 70 62 56 55 55 54 49 47
46 47 47 49 55 59 64 69 74 73 72 72 74 78 72 63 51 41 31 23 22 23 25 34 41 52 64 74 84 94 108 108 107 100 96 89 87 86 80 74 68 60 55 55 55 52 47
45 48 47 49 54 59 62 68 74 78 74 76 77 80 78 68 56 46 36 28 21 21 24 27 36 44 53 65 75 87 96 109 108 105 100 93 88 88 82 76 70 64 58 53 52 52 49
44 47 45 48 53 60 63 69 72 79 77 78 80 82 82 74 61 50 43 36 28 21 18 25 29 37 48 56 65 79 90 105 108 106 102 96 89 86 86 77 73 66 60 54 50 51 52
43 46 45 47 52 58 62 66 71 77 81 79 81 82 86 79 69 57 47 39 34 25 17 17 22 26 39 49 59 72 83 97 107 104 101 97 91 85 85 80 74 68 59 52 50 52 54
41 45 45 46 51 55 61 65 72 75 80 80 81 84 86 85 76 62 54 43 35 25 16 10 13 18 27 41 53 65 77 90 104 104 99 98 91 84 84 80 71 66 61 55 54 53 56
40 42 42 46 49 55 57 62 70 74 79 80 84 85 84 89 83 68 57 47 38 27 18 10 5 11 20 35 48 60 71 83 96 103 97 94 89 82 83 81 75 71 67 62 59 52 56
37 40 41 44 48 52 56 58 66 70 76 81 83 87 87 88 89 79 65 55 45 33 24 13 2 6 17 27 44 57 68 78 90 101 97 92 89 83 83 81 76 72 67 62 58 53 52
36 38 40 42 47 51 53 56 60 68 73 78 81 86 89 89 91 87 75 61 53 43 33 20 10 10 15 21 38 51 64 76 86 99 98 91 87 82 83 81 76 72 67 65 60 55 50
34 35 39 41 45 50 52 54 57 62 69 74 79 83 88 87 89 89 81 70 60 53 43 28 16 8 12 21 36 45 60 73 81 94 97 91 87 83 82 81 77 72 68 65 62 57 53
32 35 38 41 44 47 49 51 53 58 63 68 73 78 81 85 87 88 86 78 67 58 49 39 26 14 8 16 31 45 57 70 78 89 93 88 84 79 80 79 76 73 68 65 62 59 55
30 33 36 40 42 42 45 47 49 55 59 62 67 72 76 80 83 84 85 84 73 61 50 42 34 21 12 11 26 40 55 66 74 87 92 86 83 76 76 76 74 71 68 65 62 61 56
30 32 35 37 38 41 41 41 43 48 55 57 62 65 69 74 78 80 81 83 81 68 55 45 37 28 16 10 18 32 50 61 71 81 87 84 80 75 74 76 73 71 68 65 62 59 56
32 31 34 34 37 38 39 41 41 43 47 52 55 60 62 65 72 74 77 78 79 78 62 51 40 32 22 11 13 26 41 51 65 77 83 81 76 71 67 70 72 70 67 64 62 59 59
29 32 31 33 35 33 37 39 38 40 41 46 49 53 57 57 63 67 70 73 75 78 75 60 46 37 27 19 10 19 31 44 58 69 78 77 73 70 66 65 67 68 66 64 62 61 61
26 28 34 32 32 33 33 35 37 36 34 37 42 47 50 53 54 57 63 65 68 70 71 71 59 45 34 27 16 12 21 32 48 61 69 71 69 65 63 59 62 65 66 64 63 63 62
31 28 28 35 32 27 29 33 32 37 34 32 34 37 43 46 48 49 51 57 59 63 64 64 66 58 44 34 25 15 14 22 35 48 57 63 63 62 59 57 55 59 63 65 65 63 64
38 33 30 37 34 31 29 30 30 30 36 33 30 32 34 38 40 42 45 45 50 52 56 56 57 58 53 41 30 22 14 14 21 31 42 49 55 59 58 56 54 53 55 61 64 67 68
35 39 34 38 38 35 33 31 29 30 30 32 32 31 31 33 34 34 36 38 41 43 46 49 51 49 47 46 37 26 16 13 13 17 26 37 45 50 54 56 57 56 54 52 54 59 64
41 36 36 39 42 37 36 30 33 36 33 31 30 31 33 32 30 29 28 31 32 35 37 37 38 41 41 39 36 31 23 14 7 7 10 15 24 35 44 51 53 54 54 54 54 55 58
43 42 43 44 39 39 34 32 37 36 36 34 35 33 34 32 32 29 27 24 27 25 28 29 30 29 30 31 33 28 25 22 14 6 1 5 9 17 26 36 45 52 56 58 60 62 63
52 53 45 45 43 40 35 41 41 36 34 38 36 33 34 33 36 32 28 26 24 23 22 24 24 23 21 20 20 20 19 19 17 14 10 8 6 10 14 18 23 30 36 41 46 50 54
48 44 41 44 44 44 42 38 39 43 47 36 36 38 32 32 35 37 34 31 27 24 24 23 23 23 19 16 14 12 11 12 9 9 10 8 9 11 14 16 20 24 26 29 36 40 42
56 50 47 49 46 47 45 43 47 45 46 38 35 35 38 34 31 34 36 35 33 30 29 28 26 23 24 19 15 13 17 18 16 15 16 16 17 18 22 22 24 31 35 37 40 42 44
58 57 55 56 53 51 54 47 50 48 41 42 40 39 36 38 39 36 34 34 35 34 36 38 37 31 29 28 22 22 22 24 23 24 25 27 28 29 27 32 32 37 38 42 45 48 51
58 61 59 61 59 53 58 55 57 50 41 44 48 40 38 36 36 38 38 38 38 36 38 37 39 40 37 32 30 30 31 31 32 32 36 35 34 36 35 35 37 42 46 49 52 55 58
69 69 71 63 57 60 62 57 58 54 49 46 42 40 37 39 43 39 33 33 35 36 37 41 41 41 42 42 39 39 39 39 38 39 41 42 43 43 46 46 46 50 51 53 55 58 60
72 74 70 65 67 65 63 64 63 58 53 48 45 43 45 40 40 44 42 40 40 41 42 41 42 46 46 48 45 45 43 48 46 47 48 52 52 55 58 57 57 59 60 61 64 67 71
74 73 70 69 70 71 72 70 65 60 55 53 55 53 52 51 49 49 50 52 51 50 49 47 49 46 45 48 52 55 56 54 54 56 58 60 63 67 70 72 72 71 71 74 77 80 82
Wind_Direction
342 349 351 352 355 359 2 3 1 357 356 357 358 359 358 357 354 345 332 309 288 263 251 241 235 231 227 223 221 219 218 218 218 215 215 217 218 217 218 221 219 216 220 224 225 226 227
340 346 349 352 357 0 3 4 2 2 360 1 2 3 2 1 357 352 346 325 304 281 264 244 236 229 227 224 219 218 216 216 215 215 212 215 216 215 215 218 219 216 217 222 223 225 225
339 345 349 351 356 360 4 5 6 5 4 4 6 7 6 5 2 356 351 342 321 297 275 254 237 231 226 223 219 213 213 213 212 214 210 213 214 214 213 215 218 218 218 219 222 225 224
338 343 349 351 353 358 2 5 6 7 8 7 9 10 10 10 6 1 356 351 340 326 295 264 251 233 225 222 217 210 210 208 210 210 209 210 213 212 211 212 216 218 218 218 221 226 225
337 341 345 351 353 356 2 3 7 8 9 9 11 13 14 13 11 5 6 359 350 344 324 279 255 243 225 217 213 207 207 206 207 207 208 208 211 211 210 211 214 217 217 218 222 225 226
334 339 344 349 353 356 0 3 7 7 10 13 13 15 15 16 15 9 10 7 360 356 352 317 263 241 224 213 208 204 204 204 204 205 206 206 209 209 209 211 213 217 218 219 222 224 226
332 337 343 348 351 355 359 2 4 7 10 11 13 15 16 18 17 16 14 17 7 16 12 352 287 230 207 204 203 202 201 202 202 202 203 204 207 208 208 209 211 214 217 220 221 223 226
331 337 341 347 349 353 358 1 3 5 9 12 14 16 17 19 19 18 17 21 21 23 27 23 12 183 187 196 195 198 198 198 198 199 199 200 204 206 208 209 211 214 217 221 222 224 226
328 336 340 345 350 351 355 359 3 4 7 10 14 16 17 19 20 19 19 21 27 31 32 36 60 133 168 190 189 193 194 195 196 197 197 198 203 205 207 209 211 214 217 221 223 224 226
324 331 337 343 347 349 352 358 2 4 7 9 14 16 17 19 21 22 21 21 28 32 34 37 55 107 160 177 185 190 191 192 194 196 195 197 200 203 206 209 211 214 218 221 223 224 227
320 325 333 337 342 345 348 354 359 4 7 9 12 16 17 18 21 21 25 24 26 30 34 36 41 67 125 180 185 186 187 190 191 194 194 196 200 204 205 208 211 215 218 221 224 225 227
320 320 326 333 337 342 345 351 355 359 5 8 12 15 16 17 20 22 22 27 26 28 33 37 38 46 67 137 178 185 186 189 191 193 192 196 199 204 207 210 212 215 219 222 226 227 229
317 318 322 331 336 338 342 348 352 356 360 5 10 14 14 18 19 21 24 25 29 29 32 37 41 44 56 105 161 181 184 188 191 193 194 196 200 204 207 210 214 217 220 224 228 231 233
318 319 318 327 332 333 338 342 346 352 357 2 7 11 14 16 19 20 23 26 26 30 33 35 41 48 52 82 143 175 184 191 192 193 195 198 202 207 211 212 215 220 223 227 230 234 236
314 322 321 320 324 329 332 335 340 346 355 358 3 9 12 15 18 20 22 24 26 27 31 37 41 48 56 64 111 166 185 190 194 196 198 200 204 208 212 215 218 222 225 228 232 235 239
309 324 322 325 323 326 328 327 331 337 348 354 358 4 9 13 17 19 21 23 26 28 29 32 40 46 55 63 76 137 173 188 196 198 201 204 207 211 216 220 222 225 229 232 236 239 243
298 313 315 327 323 322 325 326 322 326 335 344 350 357 3 9 14 16 18 24 25 27 29 31 33 39 46 57 69 94 151 177 197 202 205 208 211 216 219 223 227 230 233 236 240 244 247
296 300 304 309 312 316 320 321 322 317 322 330 338 345 357 2 7 12 14 20 23 27 28 30 34 36 39 49 60 75 96 158 187 204 211 215 219 223 227 229 231 235 238 241 244 247 250
285 296 299 305 307 306 313 315 315 321 315 317 327 332 343 349 359 6 11 15 18 23 26 28 28 34 38 40 48 62 88 126 158 192 212 221 226 230 233 236 238 241 244 247 249 252 254
285 285 287 297 296 303 307 313 319 318 312 308 310 317 325 332 343 351 0 6 9 15 20 24 27 27 30 38 43 47 57 74 114 170 193 211 223 230 234 238 240 243 247 251 254 256 257
281 286 288 289 294 299 303 311 317 321 320 314 313 306 316 317 322 329 339 349 357 1 11 14 17 21 24 26 29 39 45 49 52 61 139 230 235 235 237 239 242 245 248 251 254 257 259
280 281 286 284 296 295 290 301 310 309 314 309 307 303 303 308 312 314 318 326 335 341 343 357 4 5 6 11 21 19 20 19 22 28 26 11 324 282 264 256 254 254 256 259 261 262 263
281 275 275 288 292 287 286 290 300 302 303 305 303 300 292 299 301 304 304 308 310 318 323 329 338 344 346 347 346 357 356 355 359 351 339 324 306 299 291 284 275 271 271 267 270 273 274
279 276 281 287 288 280 283 276 292 296 296 294 293 295 289 285 286 292 294 294 295 296 302 308 309 314 319 313 314 306 315 316 311 313 310 299 299 297 295 288 279 275 278 275 274 276 277
277 279 277 282 290 279 284 273 287 291 287 287 287 284 285 282 279 282 285 290 292 294 292 293 302 300 303 296 291 291 294 294 293 293 296 292 289 293 294 292 282 281 283 283 285 286 286
272 277 277 284 281 282 278 280 279 287 280 279 289 282 273 281 279 277 276 281 284 290 294 294 289 295 290 286 283 285 285 284 286 283 279 285 282 277 284 284 284 283 283 284 285 284 284
275 276 279 281 276 278 278 278 278 284 280 274 274 274 272 273 278 278 283 282 282 284 287 287 286 285 282 284 278 279 283 284 281 278 281 285 284 281 283 286 287 287 286 286 286 287 289
274 276 277 277 274 274 275 276 281 283 280 270 269 267 277 273 272 277 281 283 281 284 285 284 283 282 283 280 276 277 281 283 283 280 282 286 286 289 288 286 284 284 284 284 287 285 287
270 273 274 273 272 275 277 276 281 281 275 267 265 269 271 276 275 277 280 279 276 278 282 282 277 278 280 279 278 278 280 281 278 279 281 283 285 287 289 289 290 290 289 288 288 289 289